| time (UTC) | temp F | wind direction | speed knots | gust knots | rain 1hr in | rain 24hr in | rain mn in | humidity % | barometer mb |
| 20260506091554 | 68 | 203 | 3.5 | 7.0 | 0.00 | 0.00 | 0.00 | 42 | 1011.3 |
| 20260506090054 | 68 | 218 | 4.3 | 7.0 | 0.00 | 0.00 | 0.00 | 43 | 1011.2 |
| 20260506084554 | 68 | 206 | 4.3 | 6.1 | 0.00 | 0.00 | 0.00 | 41 | 1011.0 |
| 20260506083059 | 68 | 193 | 7.0 | 7.8 | 0.00 | 0.00 | 0.00 | 41 | 1011.0 |
| 20260506081558 | 69 | 195 | 6.1 | 7.0 | 0.00 | 0.00 | 0.00 | 41 | 1011.0 |
| 20260506073054 | 70 | 219 | 5.2 | 7.8 | 0.00 | 0.00 | 0.00 | 39 | 1011.1 |
| 20260506071554 | 69 | 233 | 5.2 | 7.0 | 0.00 | 0.00 | 0.00 | 42 | 1011.0 |
| 20260506061556 | 69 | 191 | 4.3 | 5.2 | 0.00 | 0.00 | 0.00 | 39 | 1011.3 |
| 20260506044619 | 71 | 192 | 1.7 | 5.2 | 0.00 | 0.00 | 0.00 | 37 | 1010.6 |
| 20260506043052 | 72 | 193 | 4.3 | 6.1 | 0.00 | 0.00 | 0.00 | 35 | 1010.9 |
| 20260506041553 | 71 | 160 | 0.0 | 4.3 | 0.00 | 0.00 | 0.00 | 37 | 1010.4 |
| 20260506040056 | 71 | 164 | 4.3 | 7.8 | 0.00 | 0.00 | 0.00 | 38 | 1010.2 |
| 20260506034553 | 71 | 149 | 5.2 | 8.7 | 0.00 | 0.00 | 0.00 | 38 | 1010.1 |
| 20260506033055 | 72 | 140 | 7.8 | 9.6 | 0.00 | 0.00 | 0.00 | 38 | 1009.7 |
| 20260506031553 | 72 | 150 | 5.2 | 7.8 | 0.00 | 0.00 | 0.00 | 37 | 1009.4 |
| 20260506030057 | 73 | 153 | 4.3 | 6.1 | 0.00 | 0.00 | 0.00 | 34 | 1009.3 |
| 20260506024559 | 74 | 0 | 0.9 | 2.6 | 0.00 | 0.00 | 0.00 | 32 | 1009.1 |
| 20260506023100 | 74 | 0 | 0.0 | 0.9 | 0.00 | 0.00 | 0.00 | 32 | 1009.1 |
| 20260506021606 | 74 | 0 | 0.0 | 0.9 | 0.00 | 0.00 | 0.00 | 32 | 1009.2 |
| 20260506020052 | 75 | 0 | 0.0 | 3.5 | 0.00 | 0.00 | 0.00 | 31 | 1009.1 |
| 20260506014553 | 75 | 310 | 2.6 | 7.8 | 0.00 | 0.00 | 0.00 | 31 | 1009.2 |
| 20260506013104 | 77 | 304 | 8.7 | 12.2 | 0.00 | 0.00 | 0.00 | 29 | 1009.0 |
| 20260506011552 | 77 | 302 | 7.8 | 13.9 | 0.00 | 0.00 | 0.00 | 29 | 1009.1 |
| 20260506010110 | 78 | 290 | 10.4 | 17.4 | 0.00 | 0.00 | 0.00 | 28 | 1009.0 |
| 20260506004558 | 79 | 286 | 11.3 | 19.1 | 0.00 | 0.00 | 0.00 | 27 | 1009.1 |
| 20260506003059 | 79 | 285 | 13.9 | 18.2 | 0.00 | 0.00 | 0.00 | 26 | 1009.4 |
| 20260506001559 | 79 | 277 | 10.4 | 21.7 | 0.00 | 0.00 | 0.00 | 27 | 1009.5 |
| 20260506000057 | 79 | 273 | 15.6 | 19.1 | 0.00 | 0.00 | 0.00 | 26 | 1009.6 |
| 20260505234607 | 79 | 259 | 16.5 | 26.1 | 0.00 | 0.00 | 0.00 | 25 | 1009.5 |
| 20260505233051 | 79 | 248 | 20.0 | 26.9 | 0.00 | 0.00 | 0.00 | 25 | 1009.5 |
| 20260505231553 | 79 | 266 | 20.0 | 26.9 | 0.00 | 0.00 | 0.00 | 24 | 1009.3 |
| 20260505230054 | 80 | 270 | 21.7 | 30.4 | 0.00 | 0.00 | 0.00 | 24 | 1009.5 |
| 20260505224554 | 81 | 251 | 20.0 | 29.5 | 0.00 | 0.00 | 0.00 | 23 | 1009.5 |
| 20260505223055 | 81 | 265 | 18.2 | 26.1 | 0.00 | 0.00 | 0.00 | 23 | 1009.6 |
| 20260505221553 | 81 | 275 | 15.6 | 27.8 | 0.00 | 0.00 | 0.00 | 23 | 1009.7 |
| 20260505220055 | 81 | 257 | 19.1 | 25.2 | 0.00 | 0.00 | 0.00 | 22 | 1009.5 |
| 20260505214609 | 82 | 238 | 13.0 | 26.9 | 0.00 | 0.00 | 0.00 | 23 | 1009.9 |
| 20260505213101 | 82 | 256 | 16.5 | 25.2 | 0.00 | 0.00 | 0.00 | 22 | 1009.9 |
| 20260505211556 | 82 | 262 | 17.4 | 23.5 | 0.00 | 0.00 | 0.00 | 22 | 1010.2 |
| 20260505210059 | 82 | 254 | 18.2 | 24.3 | 0.00 | 0.00 | 0.00 | 20 | 1010.5 |
| 20260505204604 | 83 | 238 | 20.0 | 26.9 | 0.00 | 0.00 | 0.00 | 20 | 1010.0 |
| 20260505203057 | 82 | 223 | 15.6 | 23.5 | 0.00 | 0.00 | 0.00 | 20 | 1010.1 |
| 20260505201555 | 82 | 257 | 11.3 | 19.1 | 0.00 | 0.00 | 0.00 | 21 | 1010.2 |
| 20260505200105 | 82 | 239 | 13.0 | 18.2 | 0.00 | 0.00 | 0.00 | 22 | 1010.4 |
| 20260505194606 | 82 | 261 | 11.3 | 16.5 | 0.00 | 0.00 | 0.00 | 22 | 1010.4 |
| 20260505193053 | 82 | 267 | 11.3 | 17.4 | 0.00 | 0.00 | 0.00 | 23 | 1010.7 |
| 20260505191556 | 82 | 279 | 11.3 | 20.0 | 0.00 | 0.00 | 0.00 | 22 | 1010.8 |
| 20260505190056 | 82 | 279 | 14.8 | 20.9 | 0.00 | 0.00 | 0.00 | 23 | 1010.9 |
| 20260505184555 | 81 | 257 | 15.6 | 23.5 | 0.00 | 0.00 | 0.00 | 22 | 1010.9 |
| 20260505183055 | 82 | 269 | 14.8 | 26.1 | 0.00 | 0.00 | 0.00 | 21 | 1011.0 |
| 20260505181553 | 83 | 292 | 16.5 | 24.3 | 0.00 | 0.00 | 0.00 | 22 | 1011.2 |
| 20260505180108 | 82 | 265 | 17.4 | 26.1 | 0.00 | 0.00 | 0.00 | 23 | 1011.3 |
| 20260505174603 | 82 | 278 | 17.4 | 27.8 | 0.00 | 0.00 | 0.00 | 22 | 1011.2 |
| 20260505173051 | 82 | 271 | 15.6 | 26.9 | 0.00 | 0.00 | 0.00 | 24 | 1011.3 |
| 20260505171551 | 81 | 280 | 20.0 | 26.1 | 0.00 | 0.00 | 0.00 | 24 | 1011.1 |
| 20260505170053 | 81 | 269 | 15.6 | 23.5 | 0.00 | 0.00 | 0.00 | 24 | 1011.2 |
| 20260505164552 | 80 | 269 | 15.6 | 24.3 | 0.00 | 0.00 | 0.00 | 24 | 1011.2 |
| 20260505163054 | 81 | 281 | 17.4 | 24.3 | 0.00 | 0.00 | 0.00 | 23 | 1011.1 |
| 20260505161604 | 80 | 284 | 18.2 | 26.1 | 0.00 | 0.00 | 0.00 | 23 | 1011.3 |
| 20260505153053 | 78 | 275 | 13.0 | 17.4 | 0.00 | 0.00 | 0.00 | 25 | 1010.8 |
| 20260505151552 | 78 | 264 | 9.6 | 15.6 | 0.00 | 0.00 | 0.00 | 27 | 1010.8 |
| 20260505140108 | 70 | 247 | 8.7 | 12.2 | 0.00 | 0.00 | 0.00 | 52 | 1009.6 |
| 20260505124556 | 64 | 223 | 7.8 | 11.3 | 0.00 | 0.00 | 0.00 | 76 | 1009.2 |
| 20260505123101 | 63 | 204 | 7.8 | 9.6 | 0.00 | 0.00 | 0.00 | 79 | 1008.9 |
| 20260505121551 | 62 | 204 | 7.8 | 10.4 | 0.00 | 0.00 | 0.00 | 79 | 1008.6 |
| 20260505120057 | 62 | 200 | 7.0 | 8.7 | 0.00 | 0.00 | 0.00 | 79 | 1008.5 |
| 20260505114553 | 63 | 192 | 7.8 | 9.6 | 0.00 | 0.00 | 0.00 | 78 | 1008.4 |
| 20260505113106 | 63 | 212 | 7.0 | 9.6 | 0.00 | 0.00 | 0.00 | 77 | 1008.2 |
| 20260505111553 | 64 | 209 | 7.0 | 9.6 | 0.00 | 0.00 | 0.00 | 77 | 1008.5 |
| 20260505101557 | 66 | 219 | 8.7 | 13.0 | 0.00 | 0.00 | 0.00 | 74 | 1008.1 |
| 20260505100054 | 66 | 211 | 9.6 | 13.0 | 0.00 | 0.00 | 0.00 | 73 | 1008.0 |
| 20260505094553 | 67 | 224 | 8.7 | 12.2 | 0.00 | 0.00 | 0.00 | 73 | 1008.1 |
| 20260505093052 | 67 | 209 | 8.7 | 12.2 | 0.00 | 0.00 | 0.00 | 73 | 1008.0 |